Retour au catalogue

FENGYUN 1C DEB

ActifPO
NORAD 30167·DEBRIS·🇨🇳 China

Lancé May 10, 1999 depuis Taiyuan Satellite Launch Center

Loading…

Prochains Passages (prochaines 24 heures)

TLE

FraisSource: Space-Track

Époque: Sep 14, 2026, 06:30 UTC

1 30167U 99025TY  26257.27090444  .00000860  00000-0  21069-3 0  9999
2 30167  98.9678   4.5208 0142405  48.9417 334.2050 14.49389767 33487

Suivez FENGYUN 1C DEB en temps réel avec AllMySat

Download on the App Store